User: anonymous   Login
Location: Unspecified
(44.9960°N, 0.0000°E)
Time: 13:49:04
(UTC+00:00)
Language:

deb Kosmos-1275 - Orbit

View from above orbital plane
View from above orbital plane
View from above satellite
View from above satellite

Ground track
Ground track

The orbit is defined by the following mean orbital elements,

1 13477U          26087.80402561 +.00000000 +00000-0 +21022-2 0 00003
2 13477  82.9938   2.9146 0045704 210.5821 149.2706 14.39815397    03
Epoch (UTC): 28 March 2026 19:17:47
Eccentricity: 0.0045704
inclination: 82.9938°
perigee height: 726 km
apogee height: 792 km
right ascension of ascending node: 2.9146°
argument of perigee: 210.5821°
revolutions per day: 14.39815397
mean anomaly at epoch: 149.2706°

The dashed part of the orbit path shows where the satellite is in the earth's shadow,  

DLR